Location: La Oliva
(42.2466°N, 2.9955°E)
Time: 06:24:20
(UTC+00:00)

SL-8 R/B - Pass Details

Date: 22 April 2021
Orbit: 656 x 667 km, 48.4° (Epoch: 07 May)

Event Time Altitude Azimuth Distance (km) Brightness Sun altitude
Rises 19:59:24 0° 295° (WNW) 3,005 8.9 -14.5°
Reaches altitude 10° 20:01:50 10° 288° (WNW) 2,090 7.5 -14.9°
Maximum altitude 20:06:23 43° 218° (SW) 936 4.5 -15.6°
Enters shadow 20:09:04 22° 159° (SSE) 1,442 5.0 -16.0°
